Meath Environmental Platform

Observations for Trim Patrick St

Time AQI Temp °C Hum % Pres Pa CO μg/m³ H₂S μg/m³ NO μg/m³ NO₂ μg/m³ O₃ μg/m³ SO₂ μg/m³ PM1 μg/m³ PM2.5 μg/m³ PM10 μg/m³
Friday 31 July 2026
08:48 1 21.3 55 74,605 0.27 0 3.08 3.14 13.21 1.82 6.29 12.86 14.15
08:47 1 21.2 56 74,719 0.28 0 3.26 4.28 10.3 2.11 7.14 12.78 14.06
08:46 1 21.1 57 74,835 0.28 0 3.19 4.99 20.13 2.08 5.43 10.47 11.52
08:45 1 21 57 74,966 0.28 0 3.34 4.98 13.32 1.76 3.71 8.99 9.89
08:44 2 20.9 60 75,096 0.29 0 3.67 5.32 18.71 2.23 7.14 11.74 12.91
08:43 1 20.8 58 75,243 0.28 0 3.59 5.08 12.88 1.46 5.43 10.41 11.45
08:42 1 20.7 59 75,412 0.29 0 3.78 3.82 13.4 1.4 6.29 11.81 12.99
08:41 1 20.6 60 75,603 0.3 0 4.3 6.38 19.35 1.73 5.43 11.69 12.86
08:40 2 20.5 60 75,780 0.29 0 4 4.69 12.55 1.09 4.57 10.27 11.29
08:39 2 20.4 60 75,984 0.29 0 3.61 8.33 24.02 1.47 4.57 9.49 10.44
08:38 1 20.3 59 76,175 0.35 0 4.14 6.38 2.6 0.84 4.57 8.82 9.71
08:37 1 20.2 59 76,409 0.38 0 3.74 8.4 0 1.96 6.29 11.04 12.14
08:36 2 20.1 61 76,649 0.34 0 3.67 11.69 25.68 2.02 6.29 11.62 12.79
08:35 2 19.9 61 76,818 0.32 0 3.84 10.46 29.52 1.46 5.43 9.43 10.37
08:34 2 19.8 60 76,983 0.3 0 3.68 5.46 18.73 0.39 4.57 9.49 10.44
08:32 2 19.6 61 77,496 0.31 0 3.6 5.61 13.72 0.5 5.43 9.41 10.35
08:31 2 19.5 61 77,846 0.33 0 3.84 6.31 6.51 0.84 6.29 10.9 11.99
08:30 2 19.4 61 78,265 0.31 0 3.58 6.02 21.67 0.85 5.43 9.41 10.35
08:26 2 19 64 81,394 0.33 0 3.48 6.29 24.72 0.2 4.57 9.96 10.96
08:25 2 18.9 63 82,689 0.33 0 3.44 7.19 11.5 0.36 3.71 8.56 9.41